SL-24 R/B, 40303

Orbit data source: Space-Track

SL-24 R/B, 40303 is space debris in SSO originally from a launch on Thu, 06 Nov 2014 UTC launched from the Orenburg, Russia (OREN). Debris objects in space refer to the collection of defunct objects orbiting the Earth. Examples of debris include non-operational satellites, rocket bodies, and fragments generated from explosions, collisions, or faulty payload assembly.

Loading next visibility...
Identifier
40303, 2014-070F
Orbit
SSO
Country
Flag of CISCIS
Related business
Manufacturer
Yuzhnoe
Mission
Spacecraft
Bus & Motor
15A18-BR, Unknown motor
Mass
~1,000 kg wet, ~1,000 kg dry
Launch date (UTC)
2014-11-06 (11 years ago)
Launch vehicle
Unknown
Launch site
Orenburg, Russia (OREN)
Object type
Payload
Rocket body
Debris
Shape & HBR
Cyl, 1.5 m
Radar Cross Section
10.603 m², Large (>1 m²)

Expand to show TLE details & history
Last TLE update: 6 hours ago

TLE from 6 hours ago
0 SL-24 R/B
1 40303U 14070F   26125.17462168  .00000371  00000-0  95879-4 0  9996
2 40303  97.1702  34.9934 0946358 295.1080  55.4783 13.15287530550973
Epoch: 2026-05-05T04:11Z
TLE epoch observation values (Epoch: 2026-05-05T04:11:27.313Z)
Latitude
0.00003°
Longitude
109.07634°
Altitude
848.842 km
Speed
7.601 km/s
True Right ascension
02h 19m 58s
True Declination
0° 00' 00"
Sunlit
Object was in daylight at epoch
Visualization orbit readout
Latitude
Unknown
Longitude
Unknown
Altitude
Unknown
Speed
Unknown
Apparent Right ascension
Unknown
Apparent Declination
Unknown
Sunlit
N/A
Visualization observer readout
Local Sidereal Time
18:16:27
Azimuth
Unknown
Elevation
Unknown
Doppler factor
Unknown
Orbital elements
Apogee altitude
1,917.133 km
Perigee altitude
482.812 km
Semi-major axis
7,578.109 km
Eccentricity
0.09464
Inclination
97.1702°
RAAN
34.9934°
Arg. of periapsis
295.108°
True anomaly
65.00872°
Mean anomaly
55.4783°
Eccentric anomaly
60.18271°
Mean motion
3.29005 °/min
Orbital period
109.42 mins
BSTAR
0.000095879
Loading maneuver chart data...
Computing Atmospheric mass density...
Loading historical data...
Loading historical data...
Loading historical data...
Loading historical data...
Loading historical data...
Loading historical data...
Loading historical data...

Documentation

Showing up to 5 results
|